Location: Bj�rn�ya
(74.5000°N, 19.0000°E)
Time: 09:09:30
(UTC+02:00)

Envisat - Pass Details

Date: 29 January 2022
Orbit: 764 x 765 km, 98.2° (Epoch: 20 May)

Event Time Altitude Azimuth Distance (km) Brightness Sun altitude
Rises 04:57:05 0° 22° (NNE) 3,247 6.7 -21.3°
Reaches altitude 10° 04:59:28 10° 28° (NNE) 2,318 5.9 -21.1°
Maximum altitude 05:04:28 52° 104° (ESE) 959 3.8 -20.8°
Drops below altitude 10° 05:09:26 10° 181° (S) 2,310 5.4 -20.4°
Sets 05:11:48 0° 187° (S) 3,234 6.1 -20.3°
